Probability
13 6 10 10 3 3 3 3 0 0 0 0 0 0 0 0 0 0 3 0 6 3 3 3 0 3 3 6 10 10 10 10 10 10 13 13 13 10 6 6 6 10 10
0 3 0 3 0 3 3 3 3 6 10 3 3 0 0 0 0 0 3 3 0 0 3 3 3 0 6 3 3 3 6 13 13 6 3 6 13 16 6 6 10 10 13
0 3 0 0 0 0 0 0 3 6 6 6 3 0 0 0 0 0 0 0 0 0 0 0 3 0 3 6 10 10 10 10 6 6 6 6 13 13 16 13 16 13 13
0 0 0 0 0 0 3 3 3 6 3 3 3 3 0 0 0 0 0 0 0 0 0 0 0 0 0 3 10 10 6 6 6 6 6 13 13 13 13 10 13 16 13
3 0 0 0 0 3 3 3 3 0 3 3 3 3 3 0 0 0 0 0 0 0 0 0 0 0 0 0 0 3 6 6 6 6 6 13 13 13 6 13 19 16 16
3 3 0 0 0 3 0 0 0 0 0 3 3 3 3 0 0 0 0 0 0 0 0 0 3 0 0 0 0 3 3 0 3 6 6 6 16 16 19 16 16 13 13
3 6 0 0 0 0 0 0 0 0 0 0 3 3 3 0 0 0 0 0 0 0 0 0 3 0 0 0 0 0 0 0 6 6 6 6 13 13 16 16 16 13 13
3 3 3 0 3 0 0 3 3 0 0 0 0 3 3 3 3 0 0 0 0 0 0 0 0 0 0 3 0 0 0 0 3 3 3 3 3 6 13 13 16 13 13
3 3 3 0 0 0 0 0 0 0 3 3 0 0 3 3 3 3 0 0 0 0 0 0 0 0 0 3 3 0 0 0 3 0 0 0 0 3 10 10 16 16 13
3 3 0 0 0 0 0 0 0 0 0 0 0 0 0 0 3 3 0 0 0 0 0 0 0 0 0 0 3 0 0 0 0 3 0 0 3 6 6 10 16 16 10
0 0 0 0 0 0 0 0 0 0 0 0 0 0 0 0 0 0 0 0 0 0 0 0 0 0 0 0 3 3 0 0 0 0 0 0 0 3 3 6 13 13 10
0 0 0 3 0 0 0 0 0 0 0 0 0 0 0 3 3 0 0 3 0 0 0 0 0 0 0 0 0 0 0 0 0 0 0 0 0 0 0 0 6 10 6
3 0 0 0 0 0 0 0 0 0 0 0 0 0 0 0 0 3 3 3 0 0 0 0 0 0 0 0 0 0 0 0 0 0 0 0 0 0 0 3 3 0 0
3 0 0 0 0 3 0 0 3 3 0 3 0 0 3 3 3 3 0 0 0 0 0 0 0 0 0 0 0 0 0 0 0 0 0 0 0 0 0 0 0 0 0
0 0 0 0 3 3 3 3 3 3 3 0 0 0 3 3 3 3 3 3 0 0 0 0 0 0 0 0 0 0 0 0 0 0 0 0 0 0 0 0 0 0 0
3 3 0 0 0 0 0 3 3 3 0 3 6 3 3 3 3 6 6 6 6 6 0 0 0 0 0 0 0 0 0 0 0 0 0 0 0 0 0 0 0 0 0
3 3 0 0 0 0 0 3 3 3 3 0 0 0 0 0 3 6 10 6 6 6 0 0 0 0 0 0 0 0 0 0 0 0 0 0 0 0 0 0 0 0 0
3 3 3 0 0 0 0 0 0 3 3 3 0 0 0 0 0 6 6 0 0 0 0 0 0 0 0 0 0 0 0 0 0 0 0 0 0 0 0 0 0 0 0
0 0 3 3 0 0 0 0 0 0 0 0 0 0 0 0 0 6 3 3 3 0 0 0 0 0 0 0 0 0 0 0 0 0 0 0 0 0 0 0 0 0 0
0 0 0 0 0 0 0 0 0 0 0 0 0 0 0 0 3 0 3 0 0 0 0 0 0 0 0 0 0 0 0 0 0 0 0 0 0 0 0 0 0 0 0
0 0 0 0 0 0 0 3 3 0 0 0 0 0 0 0 0 0 0 3 0 0 0 0 0 0 0 0 0 0 0 0 0 0 0 0 0 0 0 0 0 0 0
3 0 0 0 0 0 0 0 0 0 0 0 0 0 0 3 0 0 0 0 0 0 0 0 0 0 0 0 0 0 0 0 0 0 0 0 0 0 0 0 0 0 0
3 0 3 3 3 0 0 0 0 0 0 0 0 3 0 0 3 3 0 0 0 0 0 0 0 0 0 0 0 0 0 0 0 0 0 0 0 0 0 0 0 0 0
3 6 3 6 3 0 0 0 0 0 0 0 0 0 3 0 0 3 3 0 0 0 0 0 0 0 0 0 0 0 0 0 0 0 0 0 0 0 0 0 0 0 0
3 6 10 10 3 0 0 0 0 0 0 0 0 0 3 3 0 0 0 0 0 0 0 0 0 0 0 0 0 0 0 0 0 0 0 0 0 0 0 0 0 0 0
6 10 6 0 0 0 0 0 0 0 0 0 0 0 0 0 0 0 0 0 0 0 0 0 0 0 0 0 0 0 0 0 0 0 0 0 0 0 0 0 0 0 0
Height
5853 5852 5851 5851 5850 5849 5847 5846 5844 5843 5844 5844 5845 5846 5846 5845 5845 5845 5846 5846 5846 5846 5846 5846 5846 5845 5845 5844 5844 5844 5844 5844 5844 5844 5844 5843 5843 5843 5843 5843 5843 5843 5843
5852 5851 5850 5849 5848 5847 5846 5844 5842 5841 5842 5842 5843 5843 5843 5843 5843 5843 5843 5844 5844 5844 5844 5843 5843 5842 5842 5841 5841 5841 5840 5840 5839 5839 5839 5839 5838 5838 5838 5838 5839 5838 5838
5850 5849 5848 5847 5846 5845 5844 5842 5841 5841 5841 5841 5841 5841 5841 5841 5841 5841 5841 5841 5841 5841 5841 5841 5840 5840 5839 5838 5837 5837 5836 5836 5835 5835 5834 5834 5834 5834 5834 5834 5834 5834 5834
5848 5847 5846 5845 5844 5843 5842 5841 5840 5840 5839 5839 5839 5839 5839 5839 5839 5839 5839 5839 5839 5838 5838 5838 5837 5837 5836 5835 5834 5833 5832 5832 5831 5831 5830 5830 5830 5829 5829 5829 5829 5829 5829
5846 5845 5844 5843 5842 5841 5840 5839 5838 5838 5838 5837 5837 5837 5836 5836 5836 5836 5836 5836 5836 5836 5835 5835 5834 5834 5833 5832 5831 5830 5829 5829 5828 5827 5826 5826 5825 5825 5825 5825 5825 5824 5824
5844 5844 5842 5841 5840 5839 5838 5837 5837 5836 5835 5835 5835 5834 5834 5834 5833 5833 5833 5833 5833 5833 5833 5832 5831 5831 5830 5829 5828 5827 5826 5825 5824 5823 5822 5822 5821 5820 5820 5820 5820 5820 5820
5843 5842 5841 5839 5838 5837 5836 5835 5834 5834 5833 5833 5832 5832 5832 5831 5831 5831 5831 5831 5830 5830 5830 5829 5829 5828 5827 5826 5825 5824 5823 5822 5821 5819 5818 5817 5816 5816 5816 5815 5815 5815 5815
5841 5840 5839 5837 5836 5835 5834 5833 5832 5832 5831 5830 5830 5830 5829 5830 5829 5829 5828 5828 5828 5827 5827 5826 5826 5825 5824 5823 5822 5820 5819 5818 5817 5816 5814 5813 5812 5811 5811 5811 5811 5811 5811
5839 5838 5836 5835 5834 5833 5832 5831 5830 5829 5829 5828 5828 5828 5827 5827 5826 5826 5826 5826 5825 5825 5824 5823 5822 5822 5821 5820 5819 5817 5816 5814 5813 5812 5810 5809 5808 5807 5807 5806 5806 5806 5806
5837 5835 5834 5833 5832 5830 5830 5829 5828 5827 5826 5826 5825 5825 5825 5825 5825 5824 5823 5823 5822 5822 5821 5820 5819 5818 5817 5817 5815 5814 5812 5811 5809 5807 5806 5804 5803 5803 5802 5802 5802 5802 5801
5835 5833 5832 5831 5829 5828 5827 5826 5825 5825 5824 5824 5823 5823 5822 5822 5822 5822 5821 5820 5820 5819 5818 5817 5816 5815 5814 5813 5812 5810 5809 5807 5805 5803 5801 5800 5799 5798 5798 5797 5797 5797 5796
5832 5831 5829 5828 5827 5826 5825 5824 5823 5823 5822 5821 5821 5820 5820 5820 5819 5819 5818 5817 5817 5816 5815 5814 5813 5812 5811 5810 5808 5807 5805 5803 5801 5799 5798 5797 5796 5794 5794 5793 5793 5792 5791
5830 5828 5827 5826 5824 5823 5822 5821 5821 5820 5819 5819 5818 5818 5818 5817 5817 5816 5816 5815 5814 5813 5812 5811 5810 5809 5807 5806 5805 5803 5801 5799 5797 5796 5794 5793 5792 5791 5790 5789 5789 5788 5787
5827 5825 5824 5823 5822 5820 5819 5819 5818 5818 5817 5816 5816 5815 5815 5814 5814 5813 5813 5812 5811 5810 5809 5807 5806 5805 5803 5802 5801 5799 5797 5796 5794 5792 5791 5790 5788 5787 5786 5786 5785 5784 5783
5823 5822 5821 5820 5819 5817 5817 5816 5815 5815 5814 5814 5813 5813 5812 5812 5811 5810 5810 5809 5808 5807 5805 5804 5803 5801 5800 5798 5797 5795 5794 5792 5790 5789 5788 5786 5785 5784 5783 5782 5781 5780 5779
5819 5818 5817 5816 5815 5814 5813 5813 5812 5812 5811 5811 5810 5810 5809 5809 5808 5807 5806 5805 5804 5803 5802 5800 5799 5797 5796 5795 5793 5791 5790 5788 5787 5786 5784 5783 5781 5780 5779 5779 5778 5776 5775
5815 5814 5813 5812 5811 5810 5810 5809 5809 5808 5808 5807 5807 5807 5806 5805 5805 5804 5803 5802 5801 5800 5798 5797 5795 5794 5792 5791 5789 5787 5786 5785 5783 5782 5781 5779 5778 5777 5776 5775 5773 5772 5771
5811 5810 5809 5808 5807 5806 5805 5805 5805 5805 5804 5804 5803 5803 5802 5801 5801 5800 5799 5798 5797 5796 5794 5793 5791 5790 5788 5787 5785 5783 5782 5780 5779 5778 5777 5775 5774 5773 5772 5770 5769 5767 5766
5806 5805 5804 5803 5803 5802 5801 5800 5800 5800 5800 5799 5799 5798 5798 5797 5796 5795 5794 5794 5792 5791 5790 5789 5787 5785 5784 5782 5781 5779 5777 5776 5775 5773 5772 5771 5770 5768 5767 5765 5764 5762 5761
5800 5799 5798 5798 5797 5796 5796 5795 5795 5795 5794 5794 5794 5793 5793 5792 5791 5790 5790 5789 5787 5786 5785 5783 5782 5780 5779 5777 5776 5774 5773 5771 5770 5769 5768 5767 5765 5763 5762 5760 5759 5757 5756
5794 5793 5793 5792 5791 5791 5790 5790 5789 5789 5789 5788 5788 5788 5787 5786 5786 5785 5784 5783 5782 5781 5779 5778 5776 5775 5773 5772 5770 5769 5768 5766 5765 5764 5763 5762 5760 5759 5757 5756 5754 5752 5751
5788 5787 5786 5786 5785 5784 5784 5784 5783 5783 5783 5783 5782 5782 5781 5781 5780 5780 5779 5778 5776 5775 5774 5772 5770 5769 5768 5766 5765 5763 5762 5761 5760 5759 5758 5756 5755 5753 5752 5751 5749 5747 5746
5782 5781 5780 5779 5778 5778 5778 5778 5777 5777 5777 5776 5776 5776 5775 5775 5774 5774 5773 5772 5770 5769 5768 5766 5765 5763 5762 5760 5759 5758 5756 5755 5754 5753 5752 5751 5749 5748 5746 5745 5743 5742 5740
5775 5774 5773 5772 5772 5772 5771 5771 5771 5770 5770 5770 5769 5769 5769 5768 5768 5767 5766 5765 5764 5763 5761 5760 5758 5757 5755 5754 5752 5751 5750 5748 5747 5746 5745 5744 5743 5741 5740 5738 5737 5736 5735
5768 5767 5766 5765 5765 5765 5764 5764 5764 5763 5763 5763 5763 5762 5762 5762 5761 5760 5759 5758 5757 5756 5754 5753 5751 5750 5748 5747 5745 5744 5742 5741 5740 5739 5738 5737 5736 5735 5734 5732 5731 5730 5729
5760 5759 5759 5758 5757 5757 5757 5757 5756 5756 5756 5756 5756 5755 5755 5754 5754 5753 5752 5751 5750 5749 5747 5746 5744 5743 5741 5739 5738 5736 5735 5734 5733 5732 5731 5730 5729 5728 5727 5726 5724 5723 5722
Wind_Speed
7 8 8 8 9 9 9 9 9 9 9 9 9 9 10 11 11 11 11 11 11 12 12 12 13 13 13 13 14 15 16 18 19 19 19 20 21 21 21 21 21 21 21
8 7 7 8 8 8 8 9 9 8 9 9 9 9 10 10 10 10 11 11 12 12 12 12 13 13 13 13 14 15 16 18 18 18 18 19 20 21 20 20 21 21 22
7 7 7 7 8 9 8 8 9 8 9 9 9 9 10 10 10 10 10 11 11 12 12 12 13 13 14 14 13 14 16 16 17 17 17 18 19 19 20 20 20 21 21
7 7 7 7 8 8 8 8 8 8 8 9 9 10 10 10 10 11 11 11 11 11 11 12 13 13 14 14 14 14 14 15 15 16 17 17 17 18 18 20 19 20 20
7 7 8 8 7 7 7 7 8 8 9 10 10 10 11 11 11 12 12 12 12 11 11 11 12 12 12 12 13 13 13 13 14 14 15 16 17 17 17 19 19 19 19
8 8 8 8 7 7 8 8 9 9 10 10 11 11 11 11 12 12 11 11 11 11 10 10 11 12 12 12 13 13 12 13 13 14 14 15 17 17 17 18 18 18 18
8 8 8 8 8 8 8 8 9 10 10 10 11 11 11 11 10 11 11 11 11 11 10 10 11 12 12 13 13 13 13 13 13 14 14 15 15 16 17 17 17 18 18
9 9 8 8 9 9 9 9 9 9 10 11 11 12 11 11 10 11 11 11 11 11 11 11 11 12 12 13 13 12 12 13 13 14 15 15 15 16 17 17 17 18 18
10 10 10 10 9 9 9 10 10 9 9 10 10 10 10 9 9 10 11 11 11 12 11 11 11 12 13 13 13 13 13 14 14 15 15 16 16 16 17 16 17 17 17
10 11 11 10 10 9 9 9 9 9 9 9 9 9 9 9 9 10 11 11 11 11 12 12 12 12 12 13 14 14 14 15 15 15 15 15 15 16 16 16 16 17 17
11 11 10 10 10 9 9 9 9 9 8 8 9 9 9 9 10 10 11 13 13 12 12 13 13 13 13 13 13 14 14 14 14 14 14 14 15 15 15 16 17 18 18
11 11 10 10 10 9 9 9 9 9 9 9 9 9 10 10 10 11 11 12 13 13 13 13 13 13 14 14 14 14 15 15 15 14 13 14 14 14 15 16 16 16 16
12 11 11 11 10 10 9 10 10 9 9 8 9 9 9 10 10 11 11 12 13 13 14 14 14 14 14 14 14 14 14 14 14 13 13 13 13 13 14 13 14 14 15
13 12 12 12 11 10 10 10 10 10 9 9 9 9 10 10 10 11 11 12 13 14 14 15 15 14 14 14 14 14 15 14 14 14 14 13 13 13 13 13 13 13 14
13 13 13 12 11 11 11 11 11 11 11 10 10 10 10 10 10 11 12 12 12 13 14 15 15 15 14 14 14 14 15 14 14 14 13 13 13 13 13 13 14 14 15
14 13 13 12 12 11 11 11 11 11 11 11 11 11 11 12 12 12 12 12 12 13 14 14 15 15 15 14 15 15 15 14 14 14 13 13 13 14 14 15 15 15 15
15 15 14 14 13 13 12 12 11 11 12 12 12 13 13 13 13 13 13 13 13 13 14 14 14 14 14 15 15 15 15 15 15 14 14 14 13 14 14 14 15 15 15
16 16 16 15 15 15 15 14 14 13 14 14 14 14 14 14 14 14 14 14 14 14 15 15 15 15 15 15 15 15 15 16 15 15 15 15 14 14 15 15 16 16 16
18 17 17 17 16 16 16 16 15 15 15 15 15 15 15 15 15 15 15 15 15 15 16 16 16 16 17 17 17 17 16 16 16 16 15 15 15 16 16 16 16 17 16
18 18 18 18 18 17 17 17 17 16 16 16 16 17 17 17 17 16 16 16 16 17 17 17 17 17 18 18 17 17 17 17 17 17 17 16 16 16 16 17 16 16 16
19 19 19 19 19 19 18 18 18 18 18 17 18 18 18 18 18 17 17 17 18 18 18 18 18 18 18 18 18 18 18 18 18 17 17 17 17 17 17 17 17 17 16
19 19 19 20 20 19 19 19 19 19 19 19 19 19 19 19 18 18 18 19 19 19 19 19 19 19 19 19 19 19 19 19 19 19 19 18 18 18 18 18 18 18 18
20 20 20 20 20 19 19 19 19 20 20 20 20 20 20 20 20 19 20 20 20 20 20 20 20 20 20 20 20 20 20 21 20 20 20 19 19 19 18 18 19 19 18
21 21 21 21 21 20 21 21 21 21 20 20 20 20 21 21 21 20 21 21 21 21 21 21 21 21 21 21 21 20 21 21 21 21 21 20 20 20 19 19 19 19 18
23 22 21 21 22 21 21 22 22 22 21 21 21 21 21 22 22 22 22 21 21 21 21 21 21 22 22 22 22 22 22 21 22 22 22 22 21 21 20 20 19 19 19
23 23 23 23 23 23 23 23 23 23 23 22 22 22 22 23 23 23 23 22 22 22 22 22 22 22 23 23 23 23 23 23 23 23 23 23 22 22 22 21 20 20 20
Wind_Direction
279 275 271 276 280 280 280 280 276 267 258 254 256 256 257 259 257 251 254 258 263 265 266 269 272 274 272 269 267 267 267 266 266 267 265 263 262 263 262 262 263 264 265
282 280 277 276 281 280 281 278 276 264 257 257 259 258 257 257 255 255 256 258 262 265 266 267 269 270 271 272 271 273 274 272 269 267 266 265 265 264 264 264 264 265 266
283 288 284 281 284 283 279 273 267 263 260 261 259 259 258 256 254 254 253 257 260 264 266 267 269 269 271 274 272 271 273 273 271 270 269 268 266 265 263 264 265 266 266
293 290 291 289 287 285 282 276 272 268 267 262 259 259 259 256 256 255 255 259 262 265 268 270 272 274 275 277 277 273 272 273 271 271 271 268 265 265 264 264 266 267 268
300 299 297 296 290 285 286 284 280 274 269 266 264 263 262 258 256 258 259 261 263 265 267 268 269 273 276 279 280 278 276 279 280 280 276 271 269 271 268 267 268 269 269
300 303 304 300 292 286 284 285 282 278 274 270 265 266 266 264 257 255 258 262 267 269 271 275 273 275 277 281 286 284 281 280 282 282 279 276 272 272 269 267 266 267 268
300 303 306 303 289 285 283 283 282 280 276 274 270 271 270 268 261 256 260 264 271 275 278 277 278 279 280 286 289 287 283 282 284 285 282 279 273 271 269 267 266 266 267
304 304 304 298 290 286 284 286 284 278 274 272 271 273 274 271 267 264 263 263 268 272 277 276 277 280 285 289 286 287 290 290 288 285 282 278 274 273 271 267 267 268 269
303 303 303 299 292 288 285 285 284 280 277 272 270 268 269 269 274 271 266 267 267 271 275 275 280 283 285 287 288 290 291 291 289 285 284 280 275 273 274 272 269 270 270
301 303 304 300 295 291 287 286 282 280 279 274 270 268 267 266 271 273 273 277 280 281 280 284 288 286 284 287 292 292 292 292 293 289 284 281 279 277 273 271 269 269 271
302 304 306 301 297 291 287 286 283 281 278 274 270 271 272 271 269 269 276 279 282 285 288 291 293 291 290 289 294 296 296 295 293 291 287 283 281 279 277 274 271 271 272
301 303 305 301 296 292 286 283 283 280 278 275 274 275 276 274 271 272 275 280 283 285 289 292 291 291 294 292 295 299 298 297 296 293 290 285 285 283 281 278 275 273 274
294 296 298 298 294 290 286 283 283 281 278 275 276 277 277 276 277 277 279 282 284 287 290 292 293 294 295 295 297 298 297 296 295 293 290 288 288 286 284 282 279 279 278
290 291 292 292 291 287 285 284 282 280 280 277 278 278 279 278 278 280 281 282 285 289 291 293 295 296 296 297 295 296 296 293 294 296 289 286 287 286 285 284 282 282 280
291 290 289 288 287 284 282 281 279 279 279 277 277 278 278 280 279 280 282 284 287 288 289 292 294 296 296 298 297 296 296 295 294 295 291 286 285 284 284 285 285 283 284
287 286 285 283 284 284 282 280 279 277 277 276 277 279 281 281 282 282 285 287 288 290 290 291 292 294 294 298 298 295 293 293 293 291 290 288 286 282 281 283 283 283 282
282 283 282 280 280 281 280 276 276 278 278 277 277 278 280 280 282 283 284 285 288 290 292 293 293 294 294 298 299 296 293 292 292 289 287 286 285 283 283 284 283 283 283
281 279 280 279 278 278 279 277 274 275 277 277 276 277 278 278 282 285 285 286 288 290 292 291 291 292 294 298 297 296 293 291 291 289 287 286 285 285 285 285 285 285 284
278 277 275 275 276 277 276 274 274 273 275 276 276 276 276 277 281 284 285 286 288 289 291 289 288 290 292 294 294 294 292 291 289 288 287 287 287 286 287 288 287 286 283
277 276 274 273 272 272 273 272 272 274 273 274 275 275 277 278 280 281 283 286 289 290 290 289 288 288 290 293 291 290 289 288 287 287 287 287 287 288 288 287 286 286 281
278 276 274 273 272 271 270 269 270 272 272 273 275 275 278 279 278 279 282 286 289 291 291 290 288 288 289 290 288 286 285 285 284 285 285 286 286 286 286 286 285 285 284
278 276 275 274 272 270 269 269 271 271 271 273 275 275 277 279 279 279 281 284 287 289 290 289 288 288 288 289 287 285 283 282 282 282 283 285 285 285 284 284 283 283 283
279 275 274 275 271 267 266 267 268 271 272 272 272 274 276 277 278 279 281 283 284 286 287 287 287 287 287 288 285 283 282 280 280 280 281 282 284 285 284 282 284 283 281
278 277 274 272 269 266 265 266 267 269 271 273 273 274 275 276 276 278 281 282 283 284 285 285 284 284 286 286 284 282 282 280 279 279 280 281 281 282 283 284 283 281 278
278 277 276 272 270 267 266 266 267 266 268 272 274 274 274 276 274 276 279 280 281 282 283 284 283 283 284 285 284 281 281 280 278 279 279 279 279 280 282 283 283 280 278
277 277 276 274 271 269 268 267 266 266 267 270 272 274 275 275 275 276 277 278 279 280 282 282 282 283 284 283 282 282 281 280 278 278 278 278 277 278 279 280 281 280 278